www.pogodaiklimat.ru

Погода и климат >> Архив погоды >> Россия >> Чукотка >> Островное


АРХИВ ПОГОДЫ в Островном

Время (UTC), дата Ветер
(напр.,м/с)
 
Видим.   Явления Облачность Т
(С)
Тd
(С)
f
(%)
Тe
(С)
Тes
(С)
Комфортность P
(гПа)
Po
(гПа)
Тmin
(С)
Tmax
(С)
R
(мм)
R24
(мм)
S
(см)
12 11.08 В 1
{3}
50 км ясно +11.6 +9.4 86 +11 +11 1013.7 1002.3
15 11.08 Ю 2
{3}
50 км 1/1 600 м
[Sc]
+7.7 +7.3 97 +5 +5 1013.7 1002.1
18 11.08 ЮВ 1
{2}
50 км 8/8 600 м
[Sc]
+6.4 +6.4 100 +5 +5 1013.8 1002.2
21 11.08 штиль 0
{2}
50 км 4/4 600 м
[Cu med, cong]
+14.8 +9.8 72 +15 +17 1012.5 1001.3 +5.2
00 12.08 СВ 1
{4}
50 км 6/5 600 м
[Cb calv Ac trans]
+21.8 +9.0 44 +23 +27 комфорт 1010.8 999.9
03 12.08 Ю 1
{4}
50 км 8/6 600 м
[Cb calv Ac trans]
+23.8 +7.1 34 +24 +26 комфорт 1008.8 997.9
06 12.08 СЗ 1
{4}
50 км 8/6 600 м
[Cb calv Ci fib]
+24.5 +6.8 32 +25 +26 комфорт 1007.2 996.4
09 12.08 З 3
{5}
50 км 5/4 600 м
[Cb calv Ci fib]
+20.1 +12.3 61 +22 +22 комфорт 1006.4 995.5 +25.4
12 12.08 Ю 2
{4}
50 км 4/3 600 м
[Sc Ci fib]
+10.5 +8.0 84 +9 +9 1007.2 995.9
15 12.08 Ю 2
{4}
50 км 3/3 600 м
[Sc]
+8.4 +3.2 70 +7 +7 1007.1 995.7
18 12.08 ЮЗ 1
{3}
50 км 8/6 600 м
[Sc Ac trans Ci fib]
+6.4 +2.8 78 +5 +6 1007.8 996.3
21 12.08 С 2
{5}
50 км 6/3 600 м
[Sc Ac trans Ci fib]
+12.1 +2.7 53 +11 +13 1007.1 995.8 +5.6
00 13.08 С 3
{6}
50 км 1/0
[Ci fib]
+18.3 +3.6 38 +19 +24 1005.7 994.7
03 13.08 СВ 5
{9}
50 км 8/0
[Cs]
+18.5 +4.8 40 +18 +21 1005.7 994.7
06 13.08 В 3
{9}
50 км 8/1 600 м
[Cu hum Cs]
+15.7 +6.7 55 +15 +17 1007.0 995.8
09 13.08 В 4
{7}
50 км 6/3 600 м
[Sc Ac lent Ci sp]
+12.0 +6.5 69 +10 +10 1008.1 996.8 +19.5
12 13.08 ЮЗ 3
{8}
50 км 6/3 600 м
[Sc Ac lent Ci sp]
+7.4 +5.0 85 +5 +5 1009.9 998.3
15 13.08 ЮЗ 2
{7}
50 км 4/1 600 м
[Sc Ci sp]
+5.2 +2.7 84 +3 +3 1010.5 998.9
18 13.08 Ю 2 50 км 4/0
[Ci fib]
+3.3 +2.6 95 0 0 1012.2 1000.5
21 13.08 С 1
{3}
50 км 3/1 600 м
[Cu hum Ci fib]
+7.8 +3.0 72 +7 +11 1013.3 1001.7 +1.5
00 14.08 СЗ 2
{6}
50 км 9/4 600 м
[Cu Sc Ac trans]
+11.5 +3.0 56 +11 +13 1013.6 1002.2
03 14.08 СВ 5
{8}
50 км 4/0
[Ac trans Ci fib]
+13.0 -0.7 39 +11 +14 1014.3 1002.9
06 14.08 В 5
{8}
50 км 4/0
[Ci fib]
+11.5 -1.4 41 +9 +10 1016.2 1004.8
09 14.08 СВ 3
{9}
50 км 3/0
[Ci fib]
+6.4 -2.4 53 +4 +4 1018.9 1007.2 +14.6
12 14.08 Ю 2
{7}
50 км 3/0
[Ci fib]
+2.0 -2.0 75 -1 -1 1020.9 1009.0
15 14.08 ЮВ 2
{4}
50 км ясно -2.3 -3.2 94 -6 -6 1021.6 1009.5
18 14.08 З 1
{4}
50 км ясно -2.8 -3.5 95 -5 -5 1022.8 1010.7
21 14.08 СЗ 2
{5}
50 км 3/0
[Ci fib]
+4.1 -2.1 64 +2 +5 1023.2 1011.4 -4.1
00 15.08 СЗ 3
{8}
50 км 3/3 600 м
[Sc]
+9.1 -1.9 46 +7 +11 1022.8 1011.2
03 15.08 СЗ 3
{7}
50 км 4/4 600 м
[Sc]
+11.2 0.0 46 +10 +13 1022.7 1011.2
06 15.08 СЗ 3
{7}
50 км 3/3 600 м
[Sc]
+11.9 0.0 44 +11 +12 1023.0 1011.5
09 15.08 СВ 2
{6}
50 км ясно +7.5 +0.4 61 +6 +6 1025.2 1013.5 +12.8
12 15.08 В 1
{5}
50 км ясно +2.1 -0.7 82 +1 +1 1027.2 1015.2
15 15.08 Ю 2
{3}
50 км ясно -1.9 -2.3 97 -6 -6 1028.4 1016.2
18 15.08 В 2
{3}
50 км ясно -1.4 -1.6 99 -6 -5 1029.3 1017.2
21 15.08 В 3
{5}
50 км 4/0
[Ci fib]
+6.1 +0.2 66 +3 +6 1030.4 1018.5 -2.6
00 16.08 В 2
{6}
50 км 3/0
[Ci fib]
+11.2 +0.2 47 +10 +17 1029.9 1018.3
03 16.08 ЮВ 2
{4}
50 км 4/0
[Ci fib]
+15.3 +0.6 37 +15 +21 1029.0 1017.5
06 16.08 Ю 2
{4}
50 км 3/0
[Ci fib]
+16.4 +0.4 34 +17 +19 1028.0 1016.7
09 16.08 ЮВ 2
{4}
50 км 3/0
[Ci fib]
+11.1 +3.4 59 +10 +10 1028.5 1016.9 +17.0
12 16.08 В 3
{4}
50 км ясно +8.4 +2.7 67 +6 +6 1030.0 1018.3
15 16.08 В 2
{4}
50 км ясно +0.9 +0.6 98 -3 -3 1031.0 1019.0
18 16.08 В 2
{4}
50 км ясно +1.4 +0.6 94 -2 -2 1032.3 1020.3
21 16.08 В 4
{7}
50 км 4/0
[Ci fib]
+10.0 +2.3 59 +8 +10 1032.4 1020.7 -0.3
00 17.08 ЮВ 4
{7}
50 км 3/0
[Ci fib]
+15.1 +0.4 37 +14 +19 1031.2 1019.7
03 17.08 В 3
{8}
50 км ясно +18.5 +0.4 30 +19 +24 1029.9 1018.6
06 17.08 ЮВ 3
{7}
50 км ясно +18.7 +0.6 30 +19 +21 1029.3 1018.0
09 17.08 ЮВ 3
{6}
50 км 3/0
[Ci fib]
+15.6 +0.2 35 +15 +15 1029.6 1018.1 +19.2
12 17.08 В 3
{8}
50 км 3/0
[Ci fib]
+11.9 +2.5 53 +11 +11 1030.6 1019.0
15 17.08 ЮВ 3
{8}
50 км 3/0
[Ci fib]
+10.6 +2.5 57 +9 +9 1031.0 1019.4
18 17.08 ЮВ 2
{7}
50 км 6/0
[Ac lent Ci fib]
+9.7 +3.4 65 +8 +9 1030.9 1019.2
21 17.08 В 4
{9}
50 км 8/0
[Ac lent Ci sp]
+13.7 +5.6 58 +12 +14 1030.1 1018.6 +6.8
00 18.08 ЮВ 5
{10}
50 км 8/1 600 м
[Sc Ac trans Ci fib]
+17.0 +5.1 45 +16 +18 1028.5 1017.2
03 18.08 ЮВ 4
{9}
50 км 6/0
[Ac trans Ci fib]
+19.1 +5.1 40 +19 +22 1026.8 1015.6
06 18.08 В 4
{8}
50 км 9/3 600 м
[Sc Ac trans Ci fib]
+18.1 +7.0 48 +18 +19 1026.3 1015.1

 

Местоположение метеостанции Островное (Чукотка, Россия): широта 68.12 долгота 164.10 высота над уровнем моря 94 м.

В архиве по умолчанию представлена погода в Островном за последнюю неделю. Архивные данные за месяц целиком и за предыдущие месяцы, начиная с января 2011 года, Вы можете получить, выбрав интересующий диапазон дат из раскрывающегося списка и нажав кнопку "Ввод!".


*Определитесь, кто Вы:
робот инопланетянин человек

Внимание! Время в таблицах - всемирное. Для получения местного времени необходимо прибавить поправку, которая равна 12 ч.

Смотрите также архив погоды в соседних городах и на ближайших метеорологических станциях:

Погода в Билибино (Чукотка, Россия) (96 км)
Погода в Анюйске (Чукотка, Россия) (110 км)
Погода в Константиновской (Чукотка, Россия) (124 км)
Погода в Черском (Якутия, Россия) (133 км)
Погода в Баимке (Чукотка, Россия) (177 км)
Погода в Раучуе (Чукотка, Россия) (181 км)
Погода в Бухте Амбарчик (Чукотка, Россия) (182 км)
Погода в Илирнее (Чукотка, Россия) (187 км)
Погода в Колымской (Якутия, Россия) (235 км)
Погода на Айон Острове (Чукотка, Россия) (252 км)

Пояснения к столбцам:

Ветер - указаны скорость ветра в м/с - средняя за 10 мин, порывы в срок и между сроками (в фигурных скобках) и направление, откуда дует ветер: С - северный, СВ - северо-восточный, В - восточный, ЮВ - юго-восточный, Ю - южный, ЮЗ - юго-западный, З - западный, СЗ - северо-западный.
Видимость - горизонтальная дальность видимости в метрах или километрах. При видимости от 1 до 10 км при отсутствии осадков обычно наблюдается дымка, при ухудшении видимости до 1 км и менее - туман. В сухую погоду видимость может ухудшаться дымом, пылью или мглою.
Явления - указаны атмосферные явления, наблюдавшиеся в срок или в последний час перед сроком; фигурными скобками обозначены явления, наблюдавшиеся между сроками (за 1-3 часа до срока); квадратными скобками обозначены град или гололедные отложения с указанием их диаметра в мм.
Облачность - указаны через наклонную черту общая и нижняя облачность в баллах и высота нижней границы облаков в метрах; квадратными скобками обозначены формы облаков: Ci - перистые, Cs - перисто-слоистые, Cc - перисто-кучевые, Ac - высококучевые, As - высокослоистые, Sc - слоисто-кучевые, Ns - слоисто-дождевые, Cu - кучевые, Cb - кучево-дождевые. Подробнее классификацию облаков см. в Атласе облаков (PDF).
T - Температура воздуха - температура, измеренная на высоте 2 м над землей.
Td - Температура точки росы - температура, при понижении до которой содержащийся в воздухе водяной пар достигнет насыщения.
f - Относительная влажность воздуха - влажноcть воздуха, измеренная на высоте 2 м над землей.
Te - Эффективная температура - температура, которую ощущает одетый по сезону человек в тени. Характеристика душности погоды. При расчете учитывается влияние влажности воздуха и скорости ветра на теплоощущения человека.
Tes - Эффективная температура на солнце - температура, которую ощущает человек, с поправкой на солнечный нагрев. Характеристика знойности погоды. Зависит от высоты солнца над горизонтом, облачности и скорости ветра. Ночью, в пасмурную погоду, а также при ветре 12 м/с и более поправка равна нулю.
P - Атмосферное давление - приведенное к уровню моря атмосферное давление.
Po - Атмосферное давление - измеренное на уровне метеостанции атмосферное давление.
Tmin - Минимальная температура - минимум температуры воздуха на высоте 2 м над землей.
Tmax - Максимальная температура - максимум температуры воздуха на высоте 2 м над землей.
R - Количество осадков - Количество выпавших осадков за период времени, мм. При наведении курсора мыши на число - период времени, за который выпало указанное количество осадков.
R24 - Количество осадков - Количество выпавших осадков за 24 часа, мм.
S - Снежный покров - Высота снежного покрова, см. При наведении курсора мыши на число - состояние снежного покрова и степень покрытия местности в баллах.